Wind_Speed
20 20 19 18 16 15 14 13 12 11 10 9 8 8 7 5 4 2 0 2 3 4 5 5 5 5 5 6 6 6 6 7 6 7 7 5 4 4 3 2 3 3 4 5 6 7 7 8 8
21 21 20 19 17 16 14 14 13 12 10 9 8 7 6 5 3 2 2 3 4 5 5 6 6 5 5 5 6 7 7 7 7 7 7 5 4 4 3 3 3 4 4 5 6 7 8 8 9
23 22 21 19 18 16 15 14 13 12 11 9 8 7 6 5 3 2 2 4 5 5 5 6 6 6 6 6 6 7 7 7 8 7 7 5 5 4 3 4 4 4 5 6 6 7 8 8 9
24 23 22 20 18 18 16 15 14 13 12 10 9 8 7 5 4 3 3 4 5 6 6 6 6 7 7 7 7 7 7 8 8 7 7 6 5 5 4 5 5 5 6 6 7 7 8 9 9
26 25 23 21 19 18 17 16 15 14 13 12 10 9 8 6 5 4 4 5 6 6 7 6 6 7 7 7 7 8 7 8 8 8 7 6 6 5 5 6 6 6 6 7 7 8 8 9 9
28 26 24 21 20 20 18 17 16 15 14 13 11 10 9 8 7 6 6 6 7 7 8 7 7 7 7 8 9 9 8 8 9 8 7 7 7 6 6 6 6 7 7 7 7 8 8 8 9
30 27 25 23 22 21 20 18 17 16 16 14 13 12 11 9 9 8 8 8 9 9 9 8 8 8 8 9 9 9 9 9 9 8 8 8 7 7 7 6 6 7 7 7 7 7 7 7 8
31 29 27 24 23 23 21 20 19 18 17 16 15 14 13 11 11 10 10 10 10 10 10 9 9 9 9 9 10 9 9 9 9 8 8 8 8 7 7 6 6 6 6 6 6 6 6 6 6
34 32 28 25 25 25 24 22 21 20 18 17 17 16 15 14 13 12 12 12 12 11 11 10 10 10 10 10 10 10 10 9 9 9 9 8 8 7 6 6 5 5 5 5 5 5 5 5 5
36 33 29 27 27 26 26 25 23 21 20 19 19 18 17 16 15 14 14 14 14 14 13 12 12 11 11 11 11 11 10 10 10 10 9 8 8 7 6 5 5 4 4 4 3 3 3 4 5
38 34 31 30 29 28 27 27 25 23 22 22 21 19 18 18 17 16 16 15 15 15 15 14 13 13 13 13 12 12 12 11 11 10 9 8 8 7 6 5 4 4 3 2 1 2 3 5 7
40 36 34 33 31 30 29 28 27 26 26 25 23 21 20 19 19 19 18 17 17 16 16 15 14 14 14 14 13 13 13 12 11 10 9 8 8 7 6 5 4 3 1 1 2 3 5 7 9
42 39 38 36 35 33 31 30 29 28 29 28 25 23 22 22 21 21 20 19 18 18 17 17 16 16 16 16 15 14 14 13 12 11 10 9 8 7 6 5 4 3 3 3 4 6 8 10 12
44 42 41 40 38 36 34 32 30 29 31 30 28 26 25 24 24 22 21 21 20 20 19 19 18 18 17 17 16 15 14 14 13 12 11 10 9 8 7 6 5 5 6 6 8 9 11 13 14
47 45 44 43 41 39 37 35 31 31 32 31 30 29 28 27 26 25 25 24 23 23 22 21 21 20 19 18 18 17 16 15 14 12 12 11 10 9 8 8 8 8 9 10 11 12 14 16 17
51 49 48 45 43 41 40 36 33 34 34 33 33 32 31 29 29 28 27 27 26 25 24 23 23 22 21 21 20 19 18 17 15 14 13 12 12 11 11 10 11 11 12 13 14 15 17 19 21
56 54 51 47 45 43 42 37 35 36 36 35 35 35 34 33 32 31 30 29 28 27 26 25 25 24 24 23 22 20 19 18 17 16 16 15 14 14 14 14 14 15 15 16 18 19 21 22 24
56 54 51 47 45 45 44 40 36 38 38 37 38 37 37 35 34 35 34 33 31 30 29 28 27 27 26 24 23 22 21 21 20 19 18 18 17 17 17 17 17 18 19 20 21 23 24 25 27
55 52 50 48 47 47 46 44 40 40 40 39 39 39 39 38 39 39 37 36 34 32 31 30 29 28 27 26 25 25 25 24 23 22 21 21 21 20 20 20 21 21 22 23 24 26 27 28 29
55 53 51 50 49 49 49 47 44 43 42 40 41 41 41 42 42 41 40 38 36 34 33 33 32 31 30 29 29 29 28 26 24 24 23 24 24 24 23 24 24 25 25 26 27 28 29 31 32
54 53 52 50 49 49 49 50 48 45 44 43 42 42 43 44 44 43 42 41 39 37 35 35 35 34 34 33 33 31 29 28 27 27 28 27 27 26 26 27 27 28 28 29 30 31 32 33 35
54 52 51 50 50 50 51 52 49 47 46 45 44 44 44 45 46 45 44 43 41 39 39 39 38 38 37 37 35 33 32 31 31 32 31 30 29 29 29 30 30 31 31 32 33 34 35 36 37
53 52 51 50 51 52 52 54 51 48 47 45 44 43 44 46 47 47 45 44 43 43 43 42 41 41 40 39 37 36 35 34 35 34 33 33 32 32 32 32 33 34 34 35 36 37 38 39 40
53 52 52 52 53 55 53 55 54 48 46 44 42 43 43 46 47 48 48 47 46 46 45 44 43 43 42 41 40 39 38 38 38 37 36 36 35 35 35 35 36 36 37 38 39 39 40 41 43
56 55 54 55 57 57 55 56 54 46 43 43 43 42 43 46 47 49 49 49 48 48 47 46 46 45 44 44 43 42 41 41 41 40 39 39 38 38 38 38 39 39 40 41 42 43 44 44 45
57 57 58 57 57 56 55 55 51 47 44 43 44 44 44 46 48 49 49 50 50 50 49 48 47 47 46 46 45 45 44 44 43 43 42 42 41 41 41 41 42 42 43 44 45 46 47 47 48
58 58 56 56 56 55 56 53 50 47 45 44 44 45 46 46 48 49 50 50 51 51 51 50 49 49 49 48 48 48 47 47 46 46 46 45 44 44 44 44 45 45 46 47 47 48 49 50 50
58 56 56 56 55 56 56 52 48 46 45 44 44 45 45 46 48 48 49 50 51 51 51 51 51 51 50 50 50 49 49 49 49 48 48 47 47 47 47 47 48 48 49 49 50 50 51 52 52
58 59 58 57 57 56 55 51 47 47 46 44 44 44 44 45 46 46 47 49 50 51 52 52 52 52 52 52 51 51 51 51 51 50 50 50 50 50 50 50 50 51 51 51 52 52 52 53 53
56 56 56 57 57 57 55 49 46 46 45 44 44 44 44 44 45 46 47 48 49 50 51 51 52 53 53 53 53 52 52 52 53 52 52 52 52 52 52 52 52 53 53 53 53 53 53 53 53
Wind_Direction
222 224 226 227 227 230 238 244 252 261 271 282 293 301 308 310 311 304 236 145 144 147 155 160 166 174 186 193 196 193 192 184 178 174 170 164 158 148 142 118 95 73 62 56 54 54 52 50 47
222 225 227 228 228 231 237 242 250 258 265 274 284 291 296 295 292 271 171 151 147 148 153 158 160 164 167 175 184 187 186 183 174 169 164 165 165 161 134 108 93 80 72 67 64 60 56 53 50
222 224 226 227 228 230 236 241 248 253 258 265 272 277 281 279 268 228 177 163 155 148 151 157 159 163 165 168 175 176 175 173 166 163 162 164 161 149 127 109 101 90 83 75 69 64 60 58 55
222 224 226 228 227 230 234 239 245 249 254 257 261 264 267 261 244 217 190 176 168 157 153 155 158 162 167 171 173 171 167 166 163 158 159 156 151 143 130 116 105 96 88 81 74 68 65 62 59
223 225 227 227 227 228 232 236 242 246 249 250 251 254 256 250 234 212 197 185 179 170 162 158 159 164 170 175 174 171 170 167 162 157 154 149 143 137 126 113 106 99 90 81 75 71 68 65 62
224 226 227 227 227 228 230 233 238 243 245 245 245 246 247 240 229 211 201 191 185 179 172 167 166 168 170 175 175 174 172 167 162 156 151 147 142 134 126 115 106 99 90 83 78 75 72 68 62
225 227 228 225 226 228 230 232 234 239 242 242 242 240 240 234 227 214 206 198 190 185 179 177 174 173 171 173 174 175 175 171 166 161 156 151 145 138 129 118 108 99 92 87 82 77 70 63 56
227 229 228 225 226 228 229 230 231 234 238 239 238 235 234 231 224 215 209 201 195 191 186 186 185 183 183 180 179 180 179 175 169 164 157 150 145 139 131 121 112 104 97 92 85 76 67 56 47
228 229 228 227 226 228 228 228 229 231 234 237 235 233 232 229 223 217 212 205 199 196 193 192 194 194 193 189 186 184 181 177 170 164 160 154 149 143 136 128 119 111 105 97 86 73 60 45 30
228 229 228 228 228 227 228 228 229 230 231 234 234 232 230 228 224 219 214 209 204 200 198 197 198 200 199 196 193 189 184 178 173 168 165 161 157 152 147 138 130 123 115 102 84 61 36 15 2
229 229 229 229 229 229 228 229 230 230 231 232 232 232 231 229 226 222 217 212 208 204 201 201 202 204 203 201 197 193 188 184 180 176 173 171 168 165 158 152 145 136 126 107 61 11 351 342 338
230 229 229 230 230 230 229 230 229 228 230 232 232 232 231 230 228 224 219 215 211 208 206 206 205 207 206 204 202 197 194 191 188 185 183 181 179 176 171 167 165 167 178 248 308 318 321 322 324
230 228 229 230 231 231 231 230 229 228 231 231 230 230 230 230 229 226 222 218 214 211 210 209 209 208 208 206 204 202 199 197 195 193 193 192 190 188 187 189 198 218 245 273 291 302 307 312 315
229 229 229 231 233 233 233 232 230 228 231 231 230 229 230 230 229 226 222 219 217 215 213 212 210 209 209 209 208 207 206 205 204 204 204 203 203 203 207 217 232 248 264 278 288 296 301 306 310
230 230 230 231 233 234 235 233 231 229 231 231 231 229 230 230 229 227 224 220 219 217 215 214 212 211 213 214 213 213 213 212 212 213 214 215 217 221 227 237 249 260 271 280 288 293 298 302 305
230 230 230 231 233 235 236 234 232 231 231 231 231 230 230 229 228 228 226 224 222 220 218 217 216 216 216 218 219 219 220 220 221 222 224 226 230 235 242 249 258 267 274 281 287 292 297 300 302
229 231 232 232 234 236 237 235 233 233 232 232 232 231 230 229 228 229 228 227 224 222 221 220 220 220 220 222 224 225 226 228 229 231 233 236 240 245 251 257 264 271 277 282 287 292 295 297 299
231 233 235 235 236 238 239 236 233 235 233 232 232 231 231 229 228 228 228 228 227 225 225 224 224 224 226 227 229 230 231 233 235 236 239 242 247 252 257 263 268 273 278 282 287 290 293 295 297
234 235 236 237 237 238 239 238 234 235 235 233 234 233 232 230 229 230 230 229 229 228 228 228 228 229 230 231 232 233 234 236 239 242 245 249 253 257 261 266 270 274 278 282 285 288 291 293 295
234 235 236 237 237 238 239 239 236 235 235 235 235 234 232 230 231 231 231 231 231 230 230 230 231 232 232 233 234 235 238 241 244 246 249 252 255 259 264 268 271 275 279 282 284 287 289 291 293
233 235 236 237 238 239 240 240 237 236 237 236 237 236 234 232 232 232 232 233 232 232 232 233 234 235 235 236 237 239 242 245 247 248 250 253 257 262 266 269 272 276 279 281 284 286 288 290 292
234 235 236 237 237 238 240 241 237 237 238 238 238 238 237 235 234 234 233 234 234 234 234 235 235 236 237 239 240 241 243 245 247 249 253 257 260 263 266 269 273 276 279 281 283 285 287 289 291
232 233 234 235 237 238 239 242 238 237 238 240 240 240 239 237 236 236 235 235 235 235 236 237 238 238 240 241 242 243 244 246 249 252 255 258 261 263 266 269 272 275 278 280 282 284 286 288 290
228 230 232 234 236 238 238 242 241 238 240 241 242 243 242 240 238 237 237 237 237 238 238 239 240 241 242 243 244 245 246 248 250 253 256 259 261 264 266 269 272 275 278 280 282 284 286 288 289
225 227 230 232 235 238 239 242 243 241 240 242 243 244 243 241 240 239 240 239 239 240 241 241 242 242 244 245 246 247 248 249 251 254 257 259 262 264 267 269 272 274 277 279 282 283 285 287 288
227 228 230 233 237 241 241 243 245 245 243 243 243 243 244 243 241 241 241 241 241 241 242 243 243 244 245 246 247 248 249 251 253 255 258 260 262 265 267 270 272 274 277 279 281 283 284 286 288
225 227 230 234 237 239 241 243 245 246 246 245 244 243 243 244 244 242 241 242 242 242 242 243 244 245 246 247 248 249 250 252 254 256 258 260 263 265 267 270 272 274 276 279 281 282 284 286 288
225 227 230 233 236 239 242 243 244 245 247 246 246 244 244 244 245 244 243 242 242 243 243 244 244 245 247 248 249 250 252 253 255 257 259 261 263 265 267 270 272 274 276 278 280 282 284 285 287
226 227 229 233 236 239 242 243 244 245 245 246 246 245 244 245 244 245 244 243 243 243 244 245 246 247 248 249 250 251 252 254 255 257 259 261 263 265 267 269 271 273 275 278 280 281 283 285 286
230 232 234 236 238 240 243 242 243 244 246 246 246 247 246 246 245 244 244 243 243 243 244 245 246 248 249 249 251 252 253 255 256 257 259 261 263 265 267 269 271 273 275 277 279 281 283 284 285
Height
5863 5865 5868 5871 5874 5875 5876 5877 5877 5877 5878 5877 5877 5877 5876 5876 5876 5877 5874 5872 5872 5872 5872 5873 5873 5874 5875 5876 5876 5877 5878 5879 5879 5880 5881 5881 5882 5882 5882 5882 5882 5883 5882 5882 5882 5882 5882 5881 5881
5860 5863 5866 5869 5871 5873 5874 5875 5875 5876 5876 5876 5876 5876 5875 5875 5874 5874 5873 5872 5872 5872 5873 5873 5874 5874 5875 5876 5877 5878 5878 5879 5879 5880 5881 5881 5882 5882 5883 5883 5883 5883 5883 5883 5883 5883 5882 5882 5881
5858 5860 5864 5866 5868 5870 5872 5873 5873 5874 5874 5874 5875 5875 5874 5874 5874 5873 5873 5872 5872 5872 5873 5874 5874 5875 5875 5876 5877 5878 5879 5879 5880 5881 5881 5882 5882 5883 5883 5883 5884 5884 5884 5884 5884 5884 5883 5883 5882
5855 5858 5861 5864 5866 5867 5869 5871 5871 5872 5872 5873 5874 5874 5874 5874 5873 5873 5873 5873 5873 5873 5873 5874 5874 5875 5876 5877 5878 5879 5879 5880 5881 5881 5882 5882 5883 5883 5884 5884 5884 5884 5885 5885 5885 5884 5884 5884 5883
5851 5854 5858 5860 5863 5864 5866 5868 5869 5869 5870 5871 5872 5872 5872 5873 5873 5872 5873 5873 5873 5873 5874 5874 5875 5875 5876 5877 5878 5879 5880 5880 5881 5882 5882 5883 5883 5884 5884 5885 5885 5885 5885 5885 5885 5885 5885 5884 5884
5848 5851 5854 5857 5859 5861 5863 5865 5866 5867 5868 5869 5870 5871 5871 5872 5872 5872 5872 5872 5873 5873 5874 5874 5875 5876 5876 5877 5878 5879 5880 5881 5882 5882 5883 5883 5884 5885 5885 5885 5886 5886 5886 5886 5886 5886 5885 5885 5885
5845 5847 5850 5854 5856 5858 5860 5862 5863 5864 5866 5867 5868 5869 5870 5870 5871 5871 5871 5872 5872 5873 5873 5874 5875 5876 5877 5878 5879 5880 5881 5882 5882 5883 5883 5884 5885 5885 5886 5886 5886 5887 5887 5887 5887 5886 5886 5886 5885
5840 5844 5846 5850 5852 5855 5857 5858 5860 5861 5863 5865 5866 5867 5868 5869 5870 5870 5870 5871 5872 5872 5873 5874 5875 5876 5877 5878 5879 5880 5881 5882 5883 5883 5884 5885 5885 5886 5886 5887 5887 5887 5887 5887 5887 5887 5886 5886 5885
5835 5839 5842 5846 5848 5851 5852 5854 5857 5858 5860 5862 5863 5865 5866 5867 5868 5869 5869 5870 5871 5872 5873 5874 5875 5876 5877 5878 5879 5880 5881 5882 5883 5883 5884 5885 5885 5886 5886 5887 5887 5887 5887 5887 5887 5887 5886 5886 5885
5829 5834 5839 5842 5844 5846 5848 5850 5853 5855 5857 5859 5861 5862 5863 5865 5866 5867 5868 5869 5870 5871 5872 5873 5874 5876 5877 5878 5879 5880 5881 5882 5883 5883 5884 5885 5886 5886 5887 5887 5887 5887 5887 5887 5887 5887 5886 5885 5884
5824 5830 5834 5836 5839 5841 5844 5846 5849 5852 5854 5855 5857 5859 5861 5863 5864 5865 5866 5867 5868 5869 5870 5872 5873 5875 5876 5878 5879 5879 5881 5882 5882 5883 5884 5885 5885 5886 5886 5887 5887 5887 5887 5887 5886 5886 5885 5884 5883
5819 5825 5828 5831 5833 5836 5839 5842 5845 5848 5849 5851 5854 5857 5859 5860 5861 5863 5864 5865 5867 5868 5869 5871 5872 5874 5875 5877 5878 5879 5880 5881 5882 5883 5884 5884 5885 5886 5886 5886 5886 5886 5886 5886 5885 5885 5884 5883 5882
5813 5818 5822 5825 5827 5831 5834 5837 5841 5843 5845 5847 5850 5853 5855 5857 5859 5860 5862 5863 5865 5866 5867 5869 5870 5872 5874 5875 5877 5878 5879 5880 5881 5882 5883 5884 5884 5885 5885 5885 5885 5885 5885 5885 5884 5883 5882 5881 5880
5806 5811 5814 5818 5821 5825 5829 5832 5836 5839 5841 5843 5846 5849 5851 5854 5856 5858 5859 5861 5862 5864 5865 5867 5868 5870 5872 5874 5875 5876 5878 5879 5880 5881 5881 5882 5883 5883 5884 5884 5884 5884 5883 5883 5882 5881 5880 5878 5877
5798 5803 5807 5811 5815 5819 5823 5827 5832 5835 5836 5839 5842 5845 5847 5850 5852 5854 5856 5857 5859 5861 5862 5864 5866 5868 5870 5872 5873 5875 5876 5877 5878 5879 5880 5881 5881 5882 5882 5882 5882 5882 5881 5881 5880 5878 5877 5875 5874
5789 5794 5799 5805 5808 5812 5817 5822 5827 5829 5831 5834 5837 5840 5843 5846 5848 5850 5852 5854 5855 5857 5859 5861 5863 5865 5867 5869 5871 5872 5874 5875 5876 5877 5878 5879 5879 5879 5880 5879 5879 5879 5878 5878 5877 5875 5874 5872 5870
5780 5785 5791 5798 5802 5805 5809 5816 5821 5823 5826 5829 5832 5835 5837 5841 5844 5846 5848 5850 5852 5854 5856 5858 5860 5862 5864 5866 5868 5870 5871 5873 5874 5874 5875 5876 5876 5876 5876 5876 5876 5876 5875 5874 5873 5872 5870 5868 5865
5774 5780 5785 5791 5795 5799 5802 5809 5814 5816 5820 5823 5826 5829 5832 5836 5839 5840 5842 5845 5847 5850 5852 5854 5856 5859 5861 5863 5865 5867 5868 5869 5870 5871 5872 5872 5873 5873 5873 5873 5872 5872 5871 5870 5869 5867 5865 5863 5860
5766 5772 5777 5783 5787 5790 5794 5800 5806 5809 5812 5816 5819 5823 5827 5830 5832 5834 5837 5839 5842 5845 5848 5851 5853 5855 5857 5859 5861 5862 5863 5864 5866 5867 5868 5868 5869 5869 5869 5868 5868 5867 5866 5865 5864 5862 5860 5857 5855
5756 5763 5768 5773 5778 5782 5785 5791 5797 5801 5805 5810 5813 5816 5820 5823 5825 5828 5831 5834 5838 5841 5843 5846 5848 5850 5852 5854 5855 5857 5858 5860 5861 5862 5863 5863 5863 5864 5864 5863 5863 5862 5861 5859 5858 5856 5854 5851 5848
5747 5755 5760 5765 5769 5772 5777 5782 5788 5794 5798 5802 5806 5809 5812 5815 5818 5821 5824 5828 5831 5835 5838 5840 5842 5844 5846 5848 5849 5852 5854 5855 5857 5857 5857 5857 5858 5858 5858 5857 5857 5856 5855 5853 5851 5849 5847 5845 5842
5740 5747 5751 5755 5759 5763 5767 5771 5781 5786 5790 5794 5799 5802 5805 5809 5811 5814 5818 5822 5826 5829 5831 5833 5835 5837 5840 5841 5844 5846 5848 5849 5850 5850 5851 5851 5852 5852 5851 5851 5850 5849 5848 5846 5844 5842 5840 5838 5835
5730 5736 5741 5745 5748 5752 5757 5761 5771 5777 5782 5787 5791 5794 5797 5801 5804 5807 5811 5815 5818 5821 5823 5826 5828 5830 5833 5835 5838 5839 5841 5843 5843 5844 5845 5845 5845 5845 5844 5844 5843 5842 5840 5839 5837 5834 5832 5830 5827
5719 5725 5730 5733 5736 5741 5749 5751 5760 5770 5777 5781 5784 5786 5789 5792 5795 5799 5802 5806 5809 5812 5815 5817 5820 5823 5825 5827 5830 5832 5834 5835 5835 5836 5837 5837 5837 5837 5837 5836 5835 5834 5832 5830 5828 5826 5824 5821 5818
5707 5714 5718 5720 5723 5731 5739 5739 5752 5764 5769 5772 5775 5778 5780 5782 5786 5790 5793 5797 5801 5804 5807 5809 5812 5815 5817 5819 5822 5824 5825 5826 5827 5828 5828 5829 5829 5829 5828 5827 5826 5825 5823 5821 5819 5817 5815 5812 5809
5699 5704 5709 5713 5717 5724 5728 5732 5747 5755 5759 5762 5765 5768 5770 5772 5776 5779 5783 5787 5790 5794 5797 5800 5803 5806 5808 5810 5812 5814 5816 5817 5818 5819 5819 5819 5820 5820 5819 5818 5817 5815 5814 5812 5809 5807 5805 5802 5799
5687 5692 5700 5703 5707 5712 5716 5727 5738 5744 5748 5751 5754 5756 5759 5762 5765 5768 5772 5776 5779 5783 5787 5790 5793 5795 5798 5800 5802 5804 5806 5807 5809 5809 5809 5810 5810 5810 5809 5808 5807 5805 5803 5801 5799 5797 5794 5791 5788
5677 5684 5687 5691 5697 5701 5708 5717 5729 5735 5737 5740 5742 5745 5748 5751 5754 5757 5760 5764 5768 5772 5775 5778 5781 5785 5787 5789 5791 5793 5795 5797 5798 5798 5799 5799 5800 5799 5798 5797 5796 5794 5793 5790 5788 5786 5783 5780 5777
5668 5672 5677 5682 5687 5693 5699 5711 5720 5723 5725 5728 5731 5733 5736 5739 5742 5746 5749 5753 5756 5760 5764 5767 5770 5773 5776 5778 5780 5782 5784 5785 5786 5787 5788 5788 5788 5788 5787 5786 5784 5783 5781 5779 5777 5774 5771 5768 5765
5658 5664 5670 5674 5679 5685 5689 5702 5708 5711 5713 5717 5720 5723 5725 5728 5731 5734 5737 5741 5744 5748 5752 5755 5758 5761 5764 5766 5768 5770 5772 5773 5774 5775 5776 5776 5776 5776 5775 5774 5773 5771 5769 5767 5765 5762 5759 5756 5753